| time (UTC) | temp C | wind direction | speed KPH | gust KPH | rain 1hr cm | rain 24hr cm | rain mn cm | humidity % | barometer mb |
| 20260507042714 | 16 | 92 | 0.0 | 0.0 | 0.00 | 0.00 | 0.00 | 84 | 1008.0 |
| 20260507042244 | 16 | 104 | 0.0 | 0.0 | 0.00 | 0.00 | 0.00 | 84 | 1008.0 |
| 20260507041748 | 16 | 105 | 0.0 | 1.6 | 0.00 | 0.00 | 0.00 | 84 | 1008.1 |
| 20260507041259 | 16 | 90 | 0.0 | 1.6 | 0.00 | 0.00 | 0.00 | 84 | 1008.2 |
| 20260507040809 | 16 | 101 | 0.0 | 1.6 | 0.00 | 0.00 | 0.00 | 84 | 1008.0 |
| 20260507040324 | 16 | 91 | 0.0 | 1.6 | 0.00 | 0.00 | 0.00 | 84 | 1008.0 |
| 20260507035834 | 16 | 83 | 1.6 | 1.6 | 0.00 | 0.00 | 0.00 | 84 | 1008.2 |
| 20260507035414 | 16 | 69 | 0.0 | 0.0 | 0.00 | 0.00 | 0.00 | 85 | 1008.1 |
| 20260507034929 | 16 | 80 | 0.0 | 1.6 | 0.00 | 0.00 | 0.00 | 85 | 1007.9 |
| 20260507034529 | 16 | 94 | 0.0 | 0.0 | 0.00 | 0.00 | 0.00 | 85 | 1007.9 |
| 20260507034114 | 16 | 73 | 0.0 | 3.2 | 0.00 | 0.00 | 0.00 | 85 | 1007.9 |
| 20260507033659 | 16 | 63 | 1.6 | 3.2 | 0.00 | 0.00 | 0.00 | 85 | 1007.9 |
| 20260507033219 | 16 | 87 | 0.0 | 0.0 | 0.00 | 0.00 | 0.00 | 86 | 1008.1 |
| 20260507032814 | 16 | 82 | 0.0 | 0.0 | 0.00 | 0.00 | 0.00 | 86 | 1008.1 |
| 20260507032354 | 16 | 71 | 0.0 | 1.6 | 0.00 | 0.00 | 0.00 | 86 | 1008.1 |
| 20260507031914 | 16 | 97 | 0.0 | 1.6 | 0.00 | 0.00 | 0.00 | 86 | 1008.1 |
| 20260507031504 | 16 | 83 | 0.0 | 1.6 | 0.00 | 0.00 | 0.00 | 86 | 1007.9 |
| 20260507031054 | 16 | 81 | 0.0 | 0.0 | 0.00 | 0.00 | 0.00 | 87 | 1008.2 |
| 20260507030559 | 16 | 64 | 1.6 | 3.2 | 0.00 | 0.00 | 0.00 | 87 | 1008.1 |
| 20260507030159 | 16 | 77 | 0.0 | 3.2 | 0.00 | 0.00 | 0.00 | 87 | 1008.0 |
| 20260507025704 | 15 | 73 | 1.6 | 3.2 | 0.00 | 0.00 | 0.00 | 87 | 1008.5 |
| 20260507025234 | 15 | 92 | 0.0 | 1.6 | 0.00 | 0.00 | 0.00 | 87 | 1008.2 |
| 20260507024824 | 15 | 74 | 0.0 | 1.6 | 0.00 | 0.00 | 0.00 | 87 | 1008.2 |
| 20260507024419 | 15 | 54 | 1.6 | 3.2 | 0.00 | 0.00 | 0.00 | 87 | 1008.1 |
| 20260507023939 | 15 | 69 | 1.6 | 3.2 | 0.00 | 0.00 | 0.00 | 87 | 1008.3 |
| 20260507023444 | 15 | 90 | 0.0 | 3.2 | 0.00 | 0.00 | 0.00 | 87 | 1008.1 |
| 20260507023033 | 15 | 76 | 0.0 | 3.2 | 0.00 | 0.00 | 0.00 | 87 | 1008.2 |
| 20260507022604 | 15 | 90 | 0.0 | 3.2 | 0.00 | 0.00 | 0.00 | 87 | 1008.1 |
| 20260507022139 | 16 | 77 | 0.0 | 1.6 | 0.00 | 0.00 | 0.00 | 87 | 1007.9 |
| 20260507021739 | 15 | 99 | 0.0 | 3.2 | 0.00 | 0.00 | 0.00 | 87 | 1007.9 |
| 20260507021249 | 16 | 76 | 0.0 | 1.6 | 0.00 | 0.00 | 0.00 | 87 | 1008.1 |
| 20260507020753 | 16 | 42 | 1.6 | 3.2 | 0.00 | 0.00 | 0.00 | 87 | 1008.1 |
| 20260507020324 | 16 | 44 | 1.6 | 3.2 | 0.00 | 0.00 | 0.00 | 87 | 1008.1 |
| 20260507015844 | 16 | 62 | 1.6 | 3.2 | 0.00 | 0.00 | 0.00 | 86 | 1008.2 |
| 20260507015419 | 16 | 66 | 1.6 | 3.2 | 0.00 | 0.00 | 0.00 | 86 | 1008.1 |
| 20260507015004 | 16 | 62 | 0.0 | 0.0 | 0.00 | 0.00 | 0.00 | 87 | 1008.0 |
| 20260507014554 | 16 | 79 | 0.0 | 1.6 | 0.00 | 0.00 | 0.00 | 87 | 1008.2 |
| 20260507014146 | 16 | 95 | 0.0 | 3.2 | 0.00 | 0.00 | 0.00 | 87 | 1008.2 |
| 20260507013714 | 16 | 76 | 1.6 | 3.2 | 0.00 | 0.00 | 0.00 | 87 | 1008.0 |
| 20260507013249 | 16 | 85 | 1.6 | 3.2 | 0.00 | 0.00 | 0.00 | 87 | 1008.5 |
| 20260507012754 | 16 | 45 | 1.6 | 4.8 | 0.00 | 0.00 | 0.00 | 87 | 1008.3 |
| 20260507012325 | 16 | 89 | 0.0 | 3.2 | 0.00 | 0.00 | 0.00 | 88 | 1008.2 |
| 20260507011854 | 15 | 60 | 1.6 | 3.2 | 0.00 | 0.00 | 0.00 | 88 | 1008.2 |
| 20260507011454 | 15 | 27 | 3.2 | 4.8 | 0.00 | 0.00 | 0.00 | 88 | 1008.3 |
| 20260507011039 | 16 | 95 | 0.0 | 1.6 | 0.00 | 0.00 | 0.00 | 88 | 1008.5 |
| 20260507010634 | 16 | 69 | 0.0 | 4.8 | 0.00 | 0.00 | 0.00 | 88 | 1008.3 |
| 20260507010139 | 16 | 53 | 1.6 | 3.2 | 0.00 | 0.00 | 0.00 | 89 | 1008.6 |
| 20260507005850 | 15 | 59 | 0.0 | 3.2 | 0.00 | 0.00 | 0.00 | 89 | 1008.6 |
| 20260507005420 | 15 | 79 | 0.0 | 3.2 | 0.00 | 0.00 | 0.00 | 89 | 1008.6 |
| 20260507004953 | 15 | 66 | 0.0 | 3.2 | 0.00 | 0.00 | 0.00 | 89 | 1008.6 |
| 20260507004540 | 15 | 54 | 1.6 | 4.8 | 0.00 | 0.00 | 0.00 | 89 | 1008.6 |
| 20260507004106 | 15 | 97 | 0.0 | 3.2 | 0.00 | 0.00 | 0.00 | 89 | 1008.7 |
| 20260507003613 | 15 | 30 | 1.6 | 3.2 | 0.00 | 0.00 | 0.00 | 90 | 1008.8 |
| 20260507003120 | 16 | 85 | 1.6 | 4.8 | 0.00 | 0.00 | 0.00 | 90 | 1008.7 |
| 20260507002620 | 16 | 55 | 0.0 | 3.2 | 0.00 | 0.00 | 0.00 | 90 | 1008.8 |
| 20260507002208 | 16 | 38 | 1.6 | 3.2 | 0.00 | 0.00 | 0.00 | 90 | 1008.9 |
| 20260507001745 | 16 | 81 | 0.0 | 0.0 | 0.00 | 0.00 | 0.00 | 91 | 1008.9 |
| 20260507001253 | 16 | 80 | 1.6 | 3.2 | 0.00 | 0.00 | 0.00 | 91 | 1009.0 |
| 20260507000823 | 15 | 86 | 0.0 | 0.0 | 0.00 | 0.00 | 0.00 | 91 | 1008.8 |
| 20260507000350 | 15 | 86 | 0.0 | 0.0 | 0.00 | 0.00 | 0.00 | 91 | 1008.8 |
| 20260506235943 | 16 | 97 | 0.0 | 0.0 | 0.00 | 0.00 | 0.00 | 91 | 1008.9 |
| 20260506235525 | 16 | 83 | 0.0 | 0.0 | 0.00 | 0.00 | 0.00 | 91 | 1009.0 |
| 20260506235120 | 16 | 81 | 0.0 | 0.0 | 0.00 | 0.00 | 0.00 | 91 | 1008.9 |
| 20260506234640 | 16 | 84 | 0.0 | 0.0 | 0.00 | 0.00 | 0.00 | 92 | 1009.0 |
| 20260506234150 | 16 | 45 | 1.6 | 3.2 | 0.00 | 0.00 | 0.00 | 92 | 1009.0 |
| 20260506233650 | 16 | 83 | 0.0 | 1.6 | 0.00 | 0.00 | 0.00 | 92 | 1009.1 |
| 20260506233220 | 16 | 98 | 0.0 | 1.6 | 0.00 | 0.00 | 0.00 | 92 | 1009.2 |
| 20260506232725 | 16 | 100 | 1.6 | 3.2 | 0.00 | 0.00 | 0.00 | 92 | 1009.2 |
| 20260506232245 | 16 | 72 | 1.6 | 6.4 | 0.00 | 0.00 | 0.00 | 92 | 1009.2 |
| 20260506231753 | 16 | 71 | 0.0 | 1.6 | 0.00 | 0.00 | 0.00 | 92 | 1009.3 |
| 20260506231333 | 16 | 96 | 0.0 | 3.2 | 0.00 | 0.00 | 0.00 | 93 | 1009.3 |
| 20260506230850 | 16 | 59 | 1.6 | 3.2 | 0.00 | 0.00 | 0.00 | 93 | 1009.3 |
| 20260506230443 | 16 | 79 | 0.0 | 3.2 | 0.00 | 0.00 | 0.00 | 93 | 1009.3 |
| 20260506230010 | 16 | 47 | 3.2 | 4.8 | 0.00 | 0.00 | 0.00 | 93 | 1009.3 |
| 20260506225525 | 16 | 62 | 3.2 | 3.2 | 0.00 | 0.00 | 0.00 | 93 | 1009.3 |
| 20260506225038 | 16 | 68 | 0.0 | 3.2 | 0.00 | 0.00 | 0.00 | 93 | 1009.4 |
| 20260506224633 | 16 | 87 | 0.0 | 3.2 | 0.00 | 0.00 | 0.00 | 93 | 1009.3 |
| 20260506224225 | 16 | 11 | 0.0 | 4.8 | 0.00 | 0.00 | 0.00 | 93 | 1009.2 |
| 20260506223725 | 16 | 72 | 1.6 | 4.8 | 0.00 | 0.00 | 0.00 | 93 | 1009.2 |
| 20260506223305 | 16 | 84 | 1.6 | 3.2 | 0.00 | 0.00 | 0.00 | 92 | 1009.3 |
| 20260506222830 | 16 | 84 | 1.6 | 3.2 | 0.00 | 0.00 | 0.00 | 92 | 1009.1 |
| 20260506222331 | 16 | 83 | 0.0 | 1.6 | 0.00 | 0.00 | 0.00 | 92 | 1009.3 |
| 20260506221850 | 16 | 94 | 1.6 | 6.4 | 0.00 | 0.00 | 0.00 | 92 | 1009.2 |
| 20260506221416 | 16 | 96 | 0.0 | 3.2 | 0.00 | 0.00 | 0.00 | 92 | 1009.2 |
| 20260506221005 | 16 | 96 | 0.0 | 3.2 | 0.00 | 0.00 | 0.00 | 92 | 1009.0 |
| 20260506220550 | 16 | 86 | 0.0 | 3.2 | 0.00 | 0.00 | 0.00 | 92 | 1009.2 |
| 20260506220115 | 16 | 79 | 0.0 | 1.6 | 0.00 | 0.00 | 0.00 | 92 | 1009.2 |
| 20260506215638 | 16 | 108 | 0.0 | 3.2 | 0.00 | 0.00 | 0.00 | 92 | 1009.2 |
| 20260506215215 | 16 | 83 | 0.0 | 3.2 | 0.00 | 0.00 | 0.00 | 92 | 1009.1 |
| 20260506214743 | 16 | 85 | 0.0 | 3.2 | 0.00 | 0.00 | 0.00 | 92 | 1009.1 |
| 20260506214338 | 16 | 86 | 0.0 | 4.8 | 0.00 | 0.00 | 0.00 | 91 | 1008.9 |
| 20260506213908 | 16 | 60 | 0.0 | 3.2 | 0.00 | 0.00 | 0.00 | 91 | 1009.1 |
| 20260506213500 | 16 | 108 | 1.6 | 3.2 | 0.00 | 0.00 | 0.00 | 91 | 1009.0 |
| 20260506213015 | 16 | 88 | 0.0 | 3.2 | 0.00 | 0.00 | 0.00 | 91 | 1009.2 |
| 20260506212545 | 17 | 83 | 1.6 | 4.8 | 0.00 | 0.00 | 0.00 | 91 | 1009.2 |
| 20260506212125 | 17 | 97 | 0.0 | 3.2 | 0.00 | 0.00 | 0.00 | 91 | 1009.0 |
| 20260506211705 | 16 | 96 | 1.6 | 3.2 | 0.00 | 0.00 | 0.00 | 91 | 1009.1 |
| 20260506211205 | 16 | 92 | 1.6 | 1.6 | 0.00 | 0.00 | 0.00 | 90 | 1009.0 |
| 20260506210710 | 16 | 99 | 0.0 | 1.6 | 0.00 | 0.00 | 0.00 | 90 | 1008.9 |
| 20260506210255 | 16 | 101 | 0.0 | 0.0 | 0.00 | 0.00 | 0.00 | 90 | 1009.0 |
| 20260506205830 | 16 | 103 | 0.0 | 0.0 | 0.00 | 0.00 | 0.00 | 90 | 1008.7 |
| 20260506205338 | 16 | 133 | 3.2 | 4.8 | 0.00 | 0.00 | 0.00 | 90 | 1008.7 |
| 20260506204858 | 16 | 124 | 4.8 | 8.0 | 0.00 | 0.00 | 0.00 | 90 | 1008.8 |
| 20260506204425 | 16 | 99 | 0.0 | 6.4 | 0.00 | 0.00 | 0.00 | 91 | 1008.8 |
| 20260506203950 | 17 | 105 | 1.6 | 4.8 | 0.00 | 0.00 | 0.00 | 91 | 1008.7 |
| 20260506203550 | 17 | 103 | 0.0 | 4.8 | 0.00 | 0.00 | 0.00 | 91 | 1008.6 |
| 20260506203105 | 17 | 106 | 0.0 | 1.6 | 0.00 | 0.00 | 0.00 | 91 | 1008.7 |
| 20260506202635 | 17 | 103 | 0.0 | 3.2 | 0.00 | 0.00 | 0.00 | 91 | 1008.3 |
| 20260506202210 | 17 | 93 | 1.6 | 3.2 | 0.00 | 0.00 | 0.00 | 91 | 1008.5 |
| 20260506201758 | 17 | 100 | 0.0 | 3.2 | 0.00 | 0.00 | 0.00 | 91 | 1008.3 |
| 20260506201345 | 17 | 140 | 3.2 | 6.4 | 0.00 | 0.00 | 0.00 | 91 | 1008.2 |
| 20260506200945 | 17 | 114 | 0.0 | 4.8 | 0.00 | 0.00 | 0.00 | 91 | 1008.1 |
| 20260506200525 | 17 | 106 | 1.6 | 3.2 | 0.00 | 0.00 | 0.00 | 90 | 1008.0 |
| 20260506200100 | 17 | 129 | 3.2 | 6.4 | 0.00 | 0.00 | 0.00 | 90 | 1008.0 |
| 20260506195648 | 17 | 101 | 0.0 | 3.2 | 0.00 | 0.00 | 0.00 | 90 | 1007.8 |
| 20260506195245 | 17 | 137 | 4.8 | 8.0 | 0.00 | 0.00 | 0.00 | 90 | 1007.9 |
| 20260506194825 | 17 | 123 | 3.2 | 4.8 | 0.00 | 0.00 | 0.00 | 89 | 1007.8 |
| 20260506194330 | 17 | 129 | 3.2 | 4.8 | 0.00 | 0.00 | 0.00 | 89 | 1007.6 |
| 20260506193915 | 17 | 128 | 0.0 | 3.2 | 0.00 | 0.00 | 0.00 | 89 | 1007.6 |
| 20260506193455 | 17 | 163 | 6.4 | 8.0 | 0.00 | 0.00 | 0.00 | 89 | 1007.5 |
| 20260506193048 | 17 | 105 | 3.2 | 8.0 | 0.00 | 0.00 | 0.00 | 88 | 1007.5 |
| 20260506192550 | 17 | 115 | 3.2 | 4.8 | 0.00 | 0.00 | 0.00 | 88 | 1007.4 |
| 20260506192100 | 17 | 108 | 0.0 | 4.8 | 0.00 | 0.00 | 0.00 | 87 | 1007.4 |
| 20260506191610 | 17 | 110 | 0.0 | 4.8 | 0.00 | 0.00 | 0.00 | 87 | 1007.4 |
| 20260506191120 | 17 | 135 | 3.2 | 4.8 | 0.00 | 0.00 | 0.00 | 86 | 1007.4 |
| 20260506190645 | 17 | 108 | 0.0 | 4.8 | 0.00 | 0.00 | 0.00 | 86 | 1007.4 |
| 20260506190215 | 17 | 97 | 0.0 | 3.2 | 0.00 | 0.00 | 0.00 | 86 | 1007.2 |
| 20260506185755 | 17 | 78 | 1.6 | 6.4 | 0.00 | 0.00 | 0.00 | 85 | 1007.2 |
| 20260506185258 | 17 | 102 | 1.6 | 6.4 | 0.00 | 0.00 | 0.00 | 84 | 1007.2 |
| 20260506184848 | 18 | 84 | 3.2 | 6.4 | 0.00 | 0.00 | 0.00 | 83 | 1007.0 |
| 20260506184405 | 18 | 118 | 1.6 | 8.0 | 0.00 | 0.00 | 0.00 | 81 | 1007.0 |
| 20260506183925 | 18 | 89 | 4.8 | 8.0 | 0.00 | 0.00 | 0.00 | 78 | 1006.8 |
| 20260506183500 | 18 | 109 | 3.2 | 4.8 | 0.00 | 0.00 | 0.00 | 76 | 1007.0 |
| 20260506183025 | 18 | 77 | 3.2 | 6.4 | 0.00 | 0.00 | 0.00 | 75 | 1006.8 |
| 20260506182619 | 18 | 88 | 1.6 | 6.4 | 0.00 | 0.00 | 0.00 | 75 | 1006.9 |
| 20260506182125 | 18 | 120 | 3.2 | 4.8 | 0.00 | 0.00 | 0.00 | 76 | 1006.8 |
| 20260506181635 | 18 | 115 | 6.4 | 8.0 | 0.00 | 0.00 | 0.00 | 77 | 1006.7 |
| 20260506181157 | 18 | 88 | 8.0 | 9.7 | 0.00 | 0.00 | 0.00 | 77 | 1006.6 |
| 20260506180725 | 19 | 125 | 4.8 | 12.9 | 0.00 | 0.00 | 0.00 | 75 | 1006.7 |
| 20260506180245 | 21 | 23 | 4.8 | 9.7 | 0.00 | 0.00 | 0.00 | 70 | 1006.5 |
| 20260506175830 | 22 | 83 | 1.6 | 3.2 | 0.00 | 0.00 | 0.00 | 57 | 1006.7 |
| 20260506175328 | 21 | 108 | 0.0 | 4.8 | 0.00 | 0.00 | 0.00 | 55 | 1006.5 |
| 20260506174850 | 22 | 108 | 1.6 | 6.4 | 0.00 | 0.00 | 0.00 | 52 | 1006.7 |
| 20260506174407 | 22 | 103 | 0.0 | 4.8 | 0.00 | 0.00 | 0.00 | 53 | 1006.7 |
| 20260506173940 | 22 | 111 | 1.6 | 4.8 | 0.00 | 0.00 | 0.00 | 49 | 1006.8 |
| 20260506173450 | 22 | 130 | 3.2 | 6.4 | 0.00 | 0.00 | 0.00 | 48 | 1006.7 |
| 20260506172954 | 22 | 151 | 9.7 | 14.5 | 0.00 | 0.00 | 0.00 | 47 | 1006.6 |
| 20260506172525 | 22 | 146 | 4.8 | 8.0 | 0.00 | 0.00 | 0.00 | 52 | 1006.5 |
| 20260506172030 | 22 | 118 | 4.8 | 8.0 | 0.00 | 0.00 | 0.00 | 54 | 1006.6 |
| 20260506171610 | 22 | 116 | 3.2 | 6.4 | 0.00 | 0.00 | 0.00 | 54 | 1006.7 |
| 20260506171145 | 22 | 103 | 0.0 | 6.4 | 0.00 | 0.00 | 0.00 | 47 | 1006.8 |
| 20260506170718 | 22 | 154 | 1.6 | 4.8 | 0.00 | 0.00 | 0.00 | 51 | 1006.6 |
| 20260506170305 | 22 | 145 | 3.2 | 9.7 | 0.00 | 0.00 | 0.00 | 46 | 1007.0 |
| 20260506165830 | 22 | 143 | 11.3 | 14.5 | 0.00 | 0.00 | 0.00 | 42 | 1006.8 |
| 20260506165425 | 22 | 109 | 0.0 | 8.0 | 0.00 | 0.00 | 0.00 | 39 | 1006.9 |
| 20260506164945 | 22 | 171 | 6.4 | 9.7 | 0.00 | 0.00 | 0.00 | 37 | 1006.8 |
| 20260506164500 | 22 | 169 | 9.7 | 14.5 | 0.00 | 0.00 | 0.00 | 36 | 1007.1 |
| 20260506164027 | 22 | 134 | 6.4 | 14.5 | 0.00 | 0.00 | 0.00 | 37 | 1006.7 |
| 20260506163605 | 23 | 152 | 11.3 | 14.5 | 0.00 | 0.00 | 0.00 | 38 | 1006.8 |
| 20260506163145 | 23 | 110 | 9.7 | 12.9 | 0.00 | 0.00 | 0.00 | 40 | 1006.8 |
| 20260506162710 | 23 | 135 | 3.2 | 6.4 | 0.00 | 0.00 | 0.00 | 36 | 1006.7 |
| 20260506162307 | 22 | 139 | 4.8 | 8.0 | 0.00 | 0.00 | 0.00 | 37 | 1007.0 |
| 20260506161905 | 22 | 145 | 6.4 | 8.0 | 0.00 | 0.00 | 0.00 | 38 | 1006.8 |
| 20260506161440 | 23 | 180 | 9.7 | 14.5 | 0.00 | 0.00 | 0.00 | 35 | 1006.8 |
| 20260506161005 | 23 | 126 | 3.2 | 9.7 | 0.00 | 0.00 | 0.00 | 34 | 1006.9 |
| 20260506160545 | 23 | 150 | 9.7 | 17.7 | 0.00 | 0.00 | 0.00 | 37 | 1006.9 |
| 20260506160050 | 23 | 148 | 4.8 | 8.0 | 0.00 | 0.00 | 0.00 | 38 | 1007.1 |
| 20260506155605 | 23 | 124 | 3.2 | 12.9 | 0.00 | 0.00 | 0.00 | 35 | 1007.1 |
| 20260506155110 | 23 | 170 | 4.8 | 12.9 | 0.00 | 0.00 | 0.00 | 36 | 1006.9 |
| 20260506154655 | 23 | 141 | 3.2 | 16.1 | 0.00 | 0.00 | 0.00 | 36 | 1007.1 |
| 20260506154207 | 23 | 196 | 4.8 | 6.4 | 0.00 | 0.00 | 0.00 | 34 | 1007.0 |
| 20260506153805 | 23 | 144 | 4.8 | 12.9 | 0.00 | 0.00 | 0.00 | 37 | 1007.0 |
| 20260506153310 | 23 | 126 | 6.4 | 16.1 | 0.00 | 0.00 | 0.00 | 41 | 1007.1 |
| 20260506152845 | 23 | 149 | 1.6 | 8.0 | 0.00 | 0.00 | 0.00 | 36 | 1007.2 |
| 20260506152425 | 23 | 96 | 6.4 | 8.0 | 0.00 | 0.00 | 0.00 | 37 | 1007.1 |
| 20260506151945 | 23 | 132 | 3.2 | 8.0 | 0.00 | 0.00 | 0.00 | 38 | 1007.2 |
| 20260506151500 | 23 | 127 | 9.7 | 9.7 | 0.00 | 0.00 | 0.00 | 34 | 1007.2 |
| 20260506151020 | 22 | 139 | 6.4 | 14.5 | 0.00 | 0.00 | 0.00 | 36 | 1007.4 |
| 20260506150620 | 22 | 139 | 8.0 | 14.5 | 0.00 | 0.00 | 0.00 | 40 | 1007.4 |
| 20260506150145 | 22 | 139 | 6.4 | 9.7 | 0.00 | 0.00 | 0.00 | 44 | 1007.5 |
| 20260506145740 | 22 | 123 | 4.8 | 9.7 | 0.00 | 0.00 | 0.00 | 44 | 1007.4 |
| 20260506145255 | 22 | 161 | 4.8 | 9.7 | 0.00 | 0.00 | 0.00 | 41 | 1007.4 |
| 20260506144850 | 22 | 167 | 3.2 | 12.9 | 0.00 | 0.00 | 0.00 | 42 | 1007.6 |
| 20260506144435 | 22 | 116 | 1.6 | 9.7 | 0.00 | 0.00 | 0.00 | 42 | 1007.7 |
| 20260506143935 | 22 | 157 | 6.4 | 14.5 | 0.00 | 0.00 | 0.00 | 45 | 1007.6 |
| 20260506143447 | 22 | 145 | 6.4 | 14.5 | 0.00 | 0.00 | 0.00 | 42 | 1007.9 |
| 20260506143005 | 22 | 145 | 4.8 | 8.0 | 0.00 | 0.00 | 0.00 | 45 | 1007.8 |
| 20260506142515 | 23 | 159 | 6.4 | 9.7 | 0.00 | 0.00 | 0.00 | 40 | 1007.7 |
| 20260506142055 | 23 | 118 | 6.4 | 14.5 | 0.00 | 0.00 | 0.00 | 41 | 1008.1 |
| 20260506141700 | 23 | 103 | 3.2 | 8.0 | 0.00 | 0.00 | 0.00 | 41 | 1007.9 |
| 20260506141253 | 22 | 149 | 8.0 | 16.1 | 0.00 | 0.00 | 0.00 | 42 | 1007.8 |
| 20260506140810 | 22 | 146 | 8.0 | 16.1 | 0.00 | 0.00 | 0.00 | 43 | 1007.9 |
| 20260506140325 | 23 | 152 | 4.8 | 12.9 | 0.00 | 0.00 | 0.00 | 43 | 1007.9 |
| 20260506135840 | 23 | 144 | 1.6 | 9.7 | 0.00 | 0.00 | 0.00 | 44 | 1007.9 |
| 20260506135435 | 23 | 194 | 3.2 | 16.1 | 0.00 | 0.00 | 0.00 | 44 | 1008.0 |
| 20260506135015 | 23 | 151 | 3.2 | 12.9 | 0.00 | 0.00 | 0.00 | 46 | 1007.9 |
| 20260506134520 | 23 | 121 | 4.8 | 12.9 | 0.00 | 0.00 | 0.00 | 46 | 1008.1 |
| 20260506134040 | 22 | 156 | 9.7 | 20.9 | 0.00 | 0.00 | 0.00 | 46 | 1008.0 |
| 20260506133220 | 23 | 120 | 9.7 | 16.1 | 0.00 | 0.00 | 0.00 | 43 | 1008.0 |
| 20260506132725 | 23 | 153 | 8.0 | 12.9 | 0.00 | 0.00 | 0.00 | 42 | 1008.1 |
| 20260506132300 | 23 | 218 | 9.7 | 12.9 | 0.00 | 0.00 | 0.00 | 43 | 1008.0 |
| 20260506131840 | 23 | 149 | 4.8 | 12.9 | 0.00 | 0.00 | 0.00 | 44 | 1007.9 |
| 20260506131340 | 23 | 108 | 6.4 | 9.7 | 0.00 | 0.00 | 0.00 | 41 | 1008.1 |
| 20260506130915 | 23 | 132 | 4.8 | 16.1 | 0.00 | 0.00 | 0.00 | 40 | 1008.0 |
| 20260506130455 | 23 | 198 | 6.4 | 17.7 | 0.00 | 0.00 | 0.00 | 39 | 1008.0 |
| 20260506130020 | 23 | 136 | 9.7 | 12.9 | 0.00 | 0.00 | 0.00 | 41 | 1008.0 |
| 20260506125535 | 22 | 180 | 6.4 | 20.9 | 0.00 | 0.00 | 0.00 | 39 | 1008.2 |
| 20260506125110 | 23 | 151 | 4.8 | 14.5 | 0.00 | 0.00 | 0.00 | 39 | 1008.2 |
| 20260506124640 | 23 | 209 | 6.4 | 12.9 | 0.00 | 0.00 | 0.00 | 40 | 1008.1 |
| 20260506124200 | 22 | 112 | 8.0 | 12.9 | 0.00 | 0.00 | 0.00 | 39 | 1008.1 |
| 20260506123735 | 22 | 159 | 9.7 | 14.5 | 0.00 | 0.00 | 0.00 | 45 | 1008.2 |
| 20260506123240 | 22 | 211 | 4.8 | 6.4 | 0.00 | 0.00 | 0.00 | 44 | 1008.5 |
| 20260506122840 | 22 | 145 | 4.8 | 12.9 | 0.00 | 0.00 | 0.00 | 46 | 1008.3 |
| 20260506122430 | 22 | 126 | 9.7 | 14.5 | 0.00 | 0.00 | 0.00 | 46 | 1008.5 |
| 20260506122025 | 22 | 170 | 9.7 | 16.1 | 0.00 | 0.00 | 0.00 | 42 | 1008.2 |
| 20260506121530 | 22 | 151 | 9.7 | 16.1 | 0.00 | 0.00 | 0.00 | 43 | 1008.5 |
| 20260506121125 | 22 | 88 | 4.8 | 8.0 | 0.00 | 0.00 | 0.00 | 43 | 1008.6 |
| 20260506120710 | 22 | 169 | 9.7 | 12.9 | 0.00 | 0.00 | 0.00 | 42 | 1008.6 |
| 20260506120240 | 22 | 133 | 4.8 | 16.1 | 0.00 | 0.00 | 0.00 | 43 | 1008.7 |
| 20260506115840 | 21 | 151 | 12.9 | 17.7 | 0.00 | 0.00 | 0.00 | 41 | 1008.8 |
| 20260506115415 | 22 | 149 | 6.4 | 12.9 | 0.00 | 0.00 | 0.00 | 43 | 1008.6 |
| 20260506114945 | 21 | 143 | 8.0 | 16.1 | 0.00 | 0.00 | 0.00 | 44 | 1008.7 |
| 20260506114455 | 21 | 137 | 3.2 | 17.7 | 0.00 | 0.00 | 0.00 | 43 | 1008.7 |
| 20260506114000 | 21 | 134 | 4.8 | 12.9 | 0.00 | 0.00 | 0.00 | 41 | 1008.8 |
| 20260506113520 | 22 | 197 | 6.4 | 9.7 | 0.00 | 0.00 | 0.00 | 40 | 1008.6 |
| 20260506113040 | 22 | 195 | 6.4 | 9.7 | 0.00 | 0.00 | 0.00 | 40 | 1008.7 |
| 20260506112635 | 21 | 140 | 6.4 | 12.9 | 0.00 | 0.00 | 0.00 | 40 | 1008.6 |
| 20260506112155 | 21 | 187 | 6.4 | 16.1 | 0.00 | 0.00 | 0.00 | 40 | 1008.9 |
| 20260506111720 | 22 | 113 | 6.4 | 12.9 | 0.00 | 0.00 | 0.00 | 39 | 1008.8 |
| 20260506111240 | 21 | 128 | 6.4 | 14.5 | 0.00 | 0.00 | 0.00 | 38 | 1008.8 |
| 20260506110830 | 21 | 120 | 3.2 | 12.9 | 0.00 | 0.00 | 0.00 | 39 | 1008.8 |
| 20260506110345 | 21 | 180 | 4.8 | 9.7 | 0.00 | 0.00 | 0.00 | 40 | 1008.8 |
| 20260506105930 | 21 | 179 | 6.4 | 14.5 | 0.00 | 0.00 | 0.00 | 41 | 1008.9 |
| 20260506105505 | 21 | 128 | 1.6 | 12.9 | 0.00 | 0.00 | 0.00 | 42 | 1008.8 |
| 20260506105040 | 21 | 125 | 4.8 | 14.5 | 0.00 | 0.00 | 0.00 | 41 | 1008.6 |
| 20260506104550 | 21 | 184 | 8.0 | 14.5 | 0.00 | 0.00 | 0.00 | 41 | 1008.8 |
| 20260506104105 | 22 | 111 | 0.0 | 8.0 | 0.00 | 0.00 | 0.00 | 41 | 1009.0 |
| 20260506103615 | 21 | 140 | 8.0 | 9.7 | 0.00 | 0.00 | 0.00 | 42 | 1008.9 |
| 20260506103210 | 21 | 183 | 8.0 | 9.7 | 0.00 | 0.00 | 0.00 | 43 | 1008.9 |
| 20260506102745 | 20 | 105 | 3.2 | 8.0 | 0.00 | 0.00 | 0.00 | 48 | 1008.9 |
| 20260506102251 | 20 | 119 | 1.6 | 12.9 | 0.00 | 0.00 | 0.00 | 47 | 1009.1 |
| 20260506101753 | 21 | 150 | 6.4 | 14.5 | 0.00 | 0.00 | 0.00 | 46 | 1009.0 |
| 20260506101315 | 20 | 142 | 4.8 | 12.9 | 0.00 | 0.00 | 0.00 | 47 | 1008.9 |
| 20260506100900 | 20 | 129 | 8.0 | 12.9 | 0.00 | 0.00 | 0.00 | 48 | 1009.0 |
| 20260506100455 | 20 | 161 | 4.8 | 9.7 | 0.00 | 0.00 | 0.00 | 49 | 1009.1 |
| 20260506100035 | 20 | 176 | 8.0 | 12.9 | 0.00 | 0.00 | 0.00 | 53 | 1008.9 |
| 20260506095610 | 20 | 184 | 4.8 | 9.7 | 0.00 | 0.00 | 0.00 | 56 | 1009.0 |
| 20260506095201 | 20 | 125 | 8.0 | 12.9 | 0.00 | 0.00 | 0.00 | 58 | 1008.9 |
| 20260506094751 | 19 | 146 | 9.7 | 16.1 | 0.00 | 0.00 | 0.00 | 57 | 1009.0 |
| 20260506094340 | 19 | 149 | 11.3 | 14.5 | 0.00 | 0.00 | 0.00 | 55 | 1009.0 |
| 20260506093855 | 20 | 147 | 9.7 | 14.5 | 0.00 | 0.00 | 0.00 | 52 | 1008.9 |
| 20260506093441 | 20 | 143 | 9.7 | 12.9 | 0.00 | 0.00 | 0.00 | 51 | 1009.0 |
| 20260506092950 | 21 | 124 | 3.2 | 8.0 | 0.00 | 0.00 | 0.00 | 47 | 1009.0 |
| 20260506092021 | 20 | 137 | 6.4 | 12.9 | 0.00 | 0.00 | 0.00 | 51 | 1009.0 |
| 20260506091540 | 21 | 106 | 4.8 | 6.4 | 0.00 | 0.00 | 0.00 | 46 | 1008.8 |
| 20260506091105 | 20 | 145 | 3.2 | 9.7 | 0.00 | 0.00 | 0.00 | 48 | 1008.9 |
| 20260506090605 | 20 | 112 | 1.6 | 6.4 | 0.00 | 0.00 | 0.00 | 47 | 1009.0 |
| 20260506090128 | 20 | 122 | 1.6 | 8.0 | 0.00 | 0.00 | 0.00 | 47 | 1008.9 |
| 20260506085650 | 21 | 114 | 4.8 | 8.0 | 0.00 | 0.00 | 0.00 | 46 | 1009.0 |
| 20260506085240 | 21 | 137 | 0.0 | 6.4 | 0.00 | 0.00 | 0.00 | 46 | 1009.0 |
| 20260506084800 | 21 | 118 | 3.2 | 8.0 | 0.00 | 0.00 | 0.00 | 46 | 1009.0 |
| 20260506084330 | 20 | 129 | 1.6 | 3.2 | 0.00 | 0.00 | 0.00 | 50 | 1009.0 |
| 20260506083850 | 20 | 110 | 1.6 | 12.9 | 0.00 | 0.00 | 0.00 | 50 | 1009.0 |
| 20260506083445 | 20 | 113 | 6.4 | 14.5 | 0.00 | 0.00 | 0.00 | 52 | 1008.9 |
| 20260506083030 | 20 | 145 | 6.4 | 8.0 | 0.00 | 0.00 | 0.00 | 49 | 1009.0 |
| 20260506082555 | 19 | 134 | 1.6 | 8.0 | 0.00 | 0.00 | 0.00 | 52 | 1008.9 |
| 20260506082110 | 20 | 133 | 6.4 | 8.0 | 0.00 | 0.00 | 0.00 | 53 | 1008.8 |
| 20260506081705 | 19 | 146 | 4.8 | 6.4 | 0.00 | 0.00 | 0.00 | 53 | 1008.9 |
| 20260506081225 | 19 | 143 | 12.9 | 17.7 | 0.00 | 0.00 | 0.00 | 55 | 1008.8 |
| 20260506080745 | 19 | 141 | 6.4 | 14.5 | 0.00 | 0.00 | 0.00 | 54 | 1008.9 |
| 20260506080315 | 20 | 140 | 12.9 | 16.1 | 0.00 | 0.00 | 0.00 | 53 | 1008.7 |
| 20260506073203 | 20 | 329 | 9.7 | 20.9 | 0.00 | 0.00 | 0.00 | 43 | 1008.3 |
| 20260506072730 | 20 | 315 | 12.9 | 20.9 | 0.00 | 0.00 | 0.00 | 43 | 1008.3 |
| 20260506072245 | 20 | 325 | 12.9 | 17.7 | 0.00 | 0.00 | 0.00 | 44 | 1008.1 |
| 20260506071835 | 20 | 251 | 6.4 | 14.5 | 0.00 | 0.00 | 0.00 | 44 | 1008.1 |
| 20260506071345 | 19 | 231 | 9.7 | 20.9 | 0.00 | 0.00 | 0.00 | 45 | 1008.5 |
| 20260506070935 | 19 | 133 | 8.0 | 20.9 | 0.00 | 0.00 | 0.00 | 45 | 1008.1 |
| 20260506070455 | 19 | 257 | 9.7 | 16.1 | 0.00 | 0.00 | 0.00 | 45 | 1008.2 |
| 20260506062430 | 18 | 197 | 6.4 | 17.7 | 0.00 | 0.00 | 0.00 | 47 | 1008.1 |
| 20260506061940 | 18 | 316 | 11.3 | 27.4 | 0.00 | 0.00 | 0.00 | 48 | 1008.1 |
| 20260506061510 | 18 | 144 | 6.4 | 17.7 | 0.00 | 0.00 | 0.00 | 48 | 1008.1 |
| 20260506061055 | 18 | 285 | 9.7 | 19.3 | 0.00 | 0.00 | 0.00 | 48 | 1008.2 |
| 20260506060645 | 18 | 235 | 6.4 | 12.9 | 0.00 | 0.00 | 0.00 | 48 | 1008.0 |
| 20260506060216 | 18 | 286 | 9.7 | 17.7 | 0.00 | 0.00 | 0.00 | 48 | 1008.1 |
| 20260506051340 | 18 | 294 | 9.7 | 16.1 | 0.00 | 0.00 | 0.00 | 49 | 1008.0 |
| 20260506050905 | 17 | 325 | 6.4 | 17.7 | 0.00 | 0.00 | 0.00 | 50 | 1008.0 |
| 20260506050411 | 18 | 233 | 12.9 | 19.3 | 0.00 | 0.00 | 0.00 | 50 | 1007.9 |
| 20260506045020 | 17 | 359 | 6.4 | 16.1 | 0.00 | 0.00 | 0.00 | 51 | 1008.0 |
| 20260506044550 | 17 | 324 | 4.8 | 22.5 | 0.00 | 0.00 | 0.00 | 50 | 1007.7 |
| 20260506044105 | 17 | 187 | 8.0 | 14.5 | 0.00 | 0.00 | 0.00 | 50 | 1008.0 |
| 20260506043635 | 17 | 270 | 9.7 | 12.9 | 0.00 | 0.00 | 0.00 | 50 | 1007.7 |
| 20260506043230 | 17 | 251 | 6.4 | 19.3 | 0.00 | 0.00 | 0.00 | 51 | 1007.9 |